Wind_Speed
6 6 5 5 4 4 4 4 4 5 5 6 6 6 6 7 8 9 8 5 5 5 1 2 4 4 9 4 3 2 4 1 3 4 5 13 8 13 6 11 4 7 8 10 28
6 6 6 6 5 5 4 5 5 5 5 6 6 7 8 8 10 12 5 6 7 7 2 3 3 5 6 3 4 3 3 4 3 5 8 18 15 10 3 5 4 8 5 29 29
7 7 7 6 6 5 5 5 5 5 5 5 6 6 7 7 9 4 4 7 8 9 4 4 6 6 3 4 5 5 5 3 4 9 14 19 20 10 12 3 9 18 29 33 30
8 7 7 7 7 6 6 5 5 4 4 4 5 6 6 4 3 4 5 6 10 9 4 3 2 1 3 3 5 2 9 5 3 9 9 9 11 7 14 8 14 16 30 33 31
9 8 7 7 7 6 6 5 5 4 4 4 5 5 5 5 10 6 3 4 8 9 5 4 4 3 4 9 3 5 4 8 13 12 8 10 12 5 9 11 18 24 29 32 32
10 9 8 7 7 7 6 5 5 5 4 4 5 5 5 4 5 12 1 2 8 9 6 5 2 10 9 4 2 7 5 5 9 9 13 10 3 4 9 15 25 28 32 33 32
10 9 9 8 7 7 6 5 5 5 4 5 6 7 11 12 2 9 7 1 5 8 7 5 5 8 14 6 8 3 1 3 5 6 4 10 0 8 12 20 31 30 31 33 33
11 10 9 8 7 7 6 6 6 5 5 5 6 8 8 4 11 11 7 3 6 8 7 5 5 11 3 12 6 3 4 2 6 6 6 10 8 7 17 24 28 30 31 33 34
12 10 9 8 7 6 6 6 6 6 6 6 6 6 7 9 15 14 7 4 3 6 6 6 9 4 5 3 5 6 2 2 7 9 3 5 8 5 23 28 26 29 31 34 33
13 11 10 9 7 5 5 5 5 5 6 8 10 6 5 3 12 16 11 8 4 3 3 3 2 2 4 5 3 2 4 4 8 3 6 7 13 3 18 24 26 31 34 36 37
14 11 10 8 7 4 4 3 3 4 11 9 4 4 8 4 1 6 15 12 13 3 2 4 3 6 10 6 5 3 4 7 18 12 8 14 14 15 16 20 19 26 27 34 38
15 12 9 8 6 5 5 5 3 1 9 15 20 24 22 16 6 9 15 11 7 6 3 4 6 12 5 5 4 5 6 16 15 14 9 5 15 8 10 19 28 28 29 30 36
16 12 8 6 5 4 2 0 5 7 3 7 9 15 15 11 11 15 16 16 5 5 5 7 11 3 4 5 4 5 5 10 8 4 2 3 6 8 6 14 19 29 29 28 31
15 11 7 4 2 5 6 6 3 3 4 5 3 3 11 6 4 17 23 15 2 10 7 6 10 8 8 8 5 7 19 11 7 2 3 3 6 7 5 9 11 22 29 30 30
14 8 5 7 8 8 4 6 6 1 2 2 2 2 10 10 2 9 28 17 8 7 7 9 5 6 6 9 6 11 6 7 4 3 2 1 2 8 1 8 10 20 30 34 32
9 4 5 10 12 7 4 5 5 5 1 3 4 5 5 2 2 4 22 20 7 5 3 9 7 4 8 8 9 6 1 5 5 3 2 3 4 10 3 7 5 8 29 37 39
5 1 4 10 11 7 5 7 5 3 3 1 5 4 2 1 3 3 6 7 6 2 6 6 7 6 8 4 1 5 6 3 4 4 7 3 2 10 11 10 12 10 26 36 38
6 3 5 12 11 7 6 5 2 1 5 4 2 4 3 4 5 2 5 5 6 3 3 1 8 3 4 7 6 7 9 6 5 3 5 1 5 7 9 18 21 24 17 24 34
6 6 7 9 10 9 4 2 5 5 4 5 3 6 3 7 3 3 5 2 6 9 7 3 7 3 5 3 7 2 4 4 7 3 3 3 7 12 7 9 5 15 11 22 26
3 3 5 11 8 7 4 4 3 5 5 1 3 2 4 5 4 2 1 5 8 6 13 6 6 12 15 4 3 5 7 3 3 3 4 5 5 5 11 13 9 7 15 21 25
2 3 3 9 8 1 3 5 5 14 9 1 3 4 3 1 2 4 4 4 10 8 4 3 5 19 1 5 7 1 3 5 6 4 5 2 6 6 5 4 11 11 15 24 30
3 3 7 12 3 2 1 4 6 10 14 6 5 4 2 3 2 3 3 5 19 6 3 2 3 4 10 4 4 3 3 5 5 5 2 3 6 7 6 1 6 16 21 11 25
3 5 10 7 2 3 6 4 6 7 7 6 7 6 4 2 2 3 5 5 21 6 5 5 3 4 9 6 6 5 3 4 4 3 5 5 6 3 8 5 8 7 16 12 12
2 3 2 6 2 1 3 4 4 12 6 9 4 3 5 4 5 2 4 4 12 3 13 3 1 5 5 4 3 4 5 6 4 4 4 6 6 9 9 7 5 10 7 6 4
5 2 3 2 4 5 2 4 4 6 6 16 5 5 3 5 6 5 2 3 6 3 5 3 4 4 6 8 5 5 6 7 5 6 6 3 5 9 9 6 1 9 12 1 1
5 5 3 4 7 2 6 5 4 5 4 4 2 4 2 1 5 4 2 2 5 3 3 2 4 3 6 5 5 5 9 8 3 3 2 4 6 4 9 9 7 6 11 8 9
7 6 3 7 5 3 2 1 4 5 1 9 3 2 5 2 5 12 14 14 12 5 2 2 3 1 4 4 8 5 5 1 1 2 4 3 5 6 4 6 14 11 7 14 16
Wind_Direction
0 358 349 344 333 325 317 304 298 294 297 299 302 301 296 291 288 279 266 241 235 250 104 330 339 333 326 307 229 219 60 302 226 161 154 185 198 236 282 187 238 223 218 213 174
352 344 341 335 327 321 316 305 297 291 290 293 297 296 295 296 291 276 275 241 228 251 287 328 323 314 299 258 195 122 99 230 221 146 163 182 194 207 182 131 67 109 134 161 171
345 336 332 329 324 318 310 304 296 286 286 293 298 297 298 302 302 282 227 220 206 232 244 315 322 312 268 250 197 172 195 172 264 212 158 181 203 216 157 210 190 152 152 163 175
339 330 324 320 316 311 307 304 295 285 284 292 297 296 294 284 206 105 147 176 193 221 236 302 303 344 284 297 190 265 256 191 261 168 162 173 166 179 197 206 176 167 168 170 181
340 330 321 313 305 304 300 297 294 283 278 287 294 297 302 261 237 191 90 183 210 226 243 275 331 344 341 315 171 214 232 220 229 174 192 176 187 187 238 168 169 172 174 180 187
345 337 324 311 301 298 293 290 285 276 273 279 283 288 290 269 236 226 179 234 229 226 242 264 289 330 300 264 206 269 233 262 185 188 187 175 158 189 214 175 178 180 184 190 195
339 335 328 315 300 290 286 281 275 272 269 271 279 285 279 243 184 179 183 270 251 228 248 283 307 338 316 292 342 230 216 319 242 173 217 150 316 227 193 184 180 189 192 196 201
335 332 326 316 303 289 279 269 265 265 266 267 274 288 262 197 201 175 185 234 211 222 248 253 314 322 267 304 2 2 52 19 285 179 190 157 268 236 187 176 182 195 199 203 205
332 326 321 313 305 291 274 262 260 257 255 261 271 279 270 212 197 188 194 192 185 232 247 280 315 302 329 27 8 6 319 279 308 210 166 184 262 265 192 180 187 198 207 208 212
331 322 318 311 304 291 271 255 252 254 246 246 250 292 243 156 230 219 203 206 196 214 255 280 355 32 38 67 232 298 330 286 267 231 232 209 259 254 194 192 209 208 220 209 210
330 321 313 308 302 284 259 233 224 248 229 217 195 257 268 300 134 193 193 207 220 253 170 13 49 248 253 204 206 239 257 258 285 283 203 222 233 246 201 206 221 222 211 204 210
327 319 309 301 291 271 242 216 217 113 292 264 250 255 251 253 303 204 192 186 166 217 96 358 260 245 249 264 248 247 276 278 274 272 177 213 241 266 191 222 215 219 217 215 213
323 315 303 290 277 259 235 28 246 270 297 289 248 243 237 213 214 213 204 196 150 183 187 183 242 73 189 276 273 257 212 267 245 327 193 106 309 277 241 218 218 228 229 225 211
318 308 288 262 220 139 112 33 188 178 48 278 268 252 172 180 249 207 205 186 173 197 164 225 279 252 283 273 154 271 277 261 263 76 251 103 270 269 269 247 221 223 230 225 218
316 296 250 193 155 131 77 31 121 106 75 356 199 139 169 176 151 194 197 195 176 192 121 238 221 206 220 237 158 235 269 246 235 171 41 338 35 269 25 276 232 223 224 229 223
327 282 202 185 174 150 72 114 127 44 30 355 142 179 131 239 303 123 185 205 223 184 232 234 258 201 219 238 180 266 175 38 46 75 354 228 130 291 247 220 272 212 213 226 224
9 11 171 175 168 163 119 146 42 98 328 294 237 137 82 216 282 143 158 209 192 133 257 316 248 241 197 285 38 94 67 331 342 4 233 85 100 237 280 250 236 239 206 222 226
31 53 146 152 164 158 159 52 90 288 278 303 24 89 139 181 240 145 129 228 266 130 55 265 321 187 176 179 215 184 152 157 215 212 264 237 244 268 255 287 263 259 231 227 221
31 48 140 153 158 156 151 85 210 203 268 311 7 73 343 5 321 170 176 248 222 171 184 186 266 299 204 186 144 191 208 190 112 25 41 257 290 304 334 339 321 239 214 225 221
7 65 116 178 152 144 79 237 247 234 316 53 89 67 45 325 12 39 106 347 338 197 182 222 283 271 281 191 224 171 162 78 10 165 242 279 283 239 343 332 325 298 241 229 231
29 86 67 146 151 100 146 238 275 306 288 278 126 106 159 138 244 349 10 66 351 323 150 156 185 274 289 195 237 20 231 54 122 140 177 236 265 222 234 306 330 319 328 245 221
72 61 136 158 56 33 178 210 320 334 18 30 67 77 56 23 328 48 82 27 355 346 21 301 185 275 218 258 315 202 177 141 136 244 218 157 266 218 213 211 10 357 357 307 254
68 87 177 184 76 319 299 306 32 16 7 24 25 45 21 62 43 59 20 29 16 33 17 327 335 344 335 354 6 37 359 112 115 89 197 151 262 251 296 357 345 356 1 336 258
48 61 103 211 84 31 344 357 356 32 59 62 25 83 50 44 26 3 359 354 347 5 20 71 98 166 205 243 249 309 319 322 159 132 202 222 264 308 311 291 346 316 8 344 254
48 60 51 329 352 356 344 7 17 6 29 29 32 70 47 6 350 351 336 310 295 32 44 82 252 217 232 258 256 253 243 283 224 225 182 282 209 263 272 266 113 299 299 302 174
64 37 23 12 329 14 16 352 24 336 35 350 45 316 54 191 195 263 260 267 237 298 61 355 262 308 293 257 233 254 276 263 315 87 300 283 287 227 304 325 247 279 300 258 225
51 40 31 2 2 67 334 72 19 346 267 51 1 49 356 335 244 269 267 257 242 255 143 209 175 91 259 341 338 309 211 87 227 313 249 246 258 324 293 300 324 320 324 297 272
Height
1521 1520 1519 1519 1518 1517 1517 1516 1516 1516 1515 1515 1515 1515 1515 1515 1514 1514 1514 1515 1514 1514 1516 1517 1517 1517 1517 1516 1516 1516 1525 1530 1521 1520 1523 1522 1523 1521 1520 1519 1517 1517 1515 1515 1520
1521 1520 1519 1518 1517 1516 1516 1516 1515 1515 1515 1514 1514 1514 1513 1513 1512 1511 1514 1513 1514 1514 1516 1516 1517 1517 1516 1516 1515 1516 1527 1520 1513 1512 1517 1520 1523 1519 1519 1518 1518 1515 1514 1516 1521
1520 1519 1518 1517 1516 1516 1515 1515 1514 1514 1514 1514 1513 1513 1513 1512 1512 1509 1510 1511 1512 1513 1514 1515 1516 1517 1515 1513 1514 1514 1519 1512 1510 1511 1511 1516 1520 1517 1515 1518 1515 1514 1517 1518 1523
1519 1518 1517 1516 1515 1514 1514 1514 1513 1513 1513 1513 1513 1512 1512 1512 1515 1508 1508 1510 1511 1512 1514 1514 1515 1517 1516 1514 1512 1516 1509 1509 1509 1509 1511 1513 1513 1513 1512 1510 1511 1513 1515 1518 1522
1518 1517 1516 1515 1514 1513 1513 1512 1512 1512 1512 1512 1512 1511 1511 1511 1508 1508 1509 1509 1511 1511 1513 1514 1515 1515 1516 1513 1511 1511 1507 1506 1507 1508 1508 1509 1510 1512 1513 1512 1513 1515 1516 1518 1520
1518 1516 1515 1513 1512 1512 1511 1511 1510 1510 1511 1511 1510 1510 1510 1510 1505 1506 1508 1509 1510 1511 1512 1514 1515 1515 1513 1513 1510 1506 1505 1506 1504 1505 1505 1507 1512 1512 1508 1509 1512 1513 1514 1517 1518
1517 1515 1513 1512 1511 1510 1510 1509 1509 1509 1509 1509 1509 1509 1508 1504 1504 1504 1507 1508 1509 1510 1512 1514 1514 1516 1513 1511 1509 1506 1507 1506 1503 1504 1505 1506 1512 1508 1504 1507 1509 1511 1514 1516 1518
1515 1514 1512 1510 1509 1508 1508 1508 1508 1508 1508 1508 1508 1508 1503 1501 1502 1504 1506 1507 1508 1509 1511 1513 1514 1513 1512 1509 1509 1509 1511 1521 1503 1504 1503 1505 1516 1498 1502 1503 1508 1510 1513 1515 1516
1513 1511 1510 1508 1507 1507 1507 1507 1507 1507 1507 1507 1508 1507 1501 1500 1501 1504 1505 1507 1507 1509 1510 1511 1512 1512 1511 1516 1523 1519 1527 1520 1511 1501 1503 1504 1506 1494 1497 1502 1504 1505 1507 1510 1513
1511 1509 1507 1506 1505 1505 1505 1505 1505 1506 1506 1506 1506 1509 1501 1501 1500 1502 1505 1507 1508 1509 1510 1511 1511 1515 1518 1525 1544 1529 1527 1519 1519 1503 1503 1503 1500 1493 1496 1498 1500 1501 1501 1503 1505
1508 1506 1505 1504 1503 1503 1504 1505 1508 1507 1503 1499 1498 1497 1498 1499 1499 1501 1504 1506 1509 1510 1513 1511 1519 1527 1519 1517 1517 1519 1522 1524 1504 1493 1501 1497 1493 1486 1492 1495 1496 1495 1495 1496 1499
1505 1503 1502 1501 1501 1501 1502 1502 1502 1504 1499 1493 1493 1493 1495 1498 1501 1500 1503 1506 1508 1513 1512 1517 1525 1508 1509 1511 1515 1518 1523 1514 1502 1489 1495 1495 1496 1488 1488 1485 1487 1490 1490 1492 1497
1502 1500 1499 1499 1498 1499 1500 1501 1501 1502 1499 1489 1488 1488 1491 1495 1496 1497 1500 1503 1505 1512 1513 1522 1508 1504 1508 1510 1516 1514 1519 1509 1508 1494 1490 1493 1502 1490 1481 1480 1483 1486 1487 1489 1492
1498 1497 1496 1497 1500 1498 1500 1499 1499 1500 1511 1493 1487 1486 1489 1492 1493 1493 1496 1501 1503 1509 1513 1514 1501 1503 1506 1509 1511 1524 1491 1497 1498 1502 1517 1494 1529 1497 1482 1480 1480 1480 1482 1484 1487
1495 1493 1493 1495 1496 1498 1500 1499 1500 1501 1527 1488 1486 1486 1487 1490 1489 1489 1493 1497 1501 1503 1508 1510 1500 1502 1508 1504 1501 1507 1491 1494 1491 1501 1505 1505 1520 1495 1483 1480 1474 1472 1475 1477 1481
1491 1490 1491 1494 1496 1499 1499 1499 1501 1516 1519 1489 1484 1486 1488 1488 1488 1488 1491 1496 1496 1500 1501 1500 1493 1494 1493 1487 1490 1487 1490 1499 1506 1513 1529 1506 1513 1495 1485 1471 1463 1461 1466 1469 1475
1491 1490 1491 1493 1497 1498 1499 1501 1516 1521 1491 1493 1486 1485 1488 1490 1489 1490 1494 1499 1505 1515 1516 1499 1492 1483 1484 1490 1484 1491 1507 1537 1533 1541 1535 1512 1513 1495 1465 1456 1456 1453 1456 1460 1465
1492 1492 1492 1494 1496 1498 1500 1505 1518 1501 1498 1484 1483 1487 1493 1489 1489 1489 1496 1504 1496 1499 1515 1513 1514 1482 1477 1483 1488 1494 1502 1532 1539 1547 1529 1505 1510 1486 1453 1449 1447 1446 1451 1456 1461
1494 1493 1494 1496 1497 1500 1502 1522 1512 1503 1491 1490 1486 1494 1496 1491 1491 1490 1495 1501 1494 1496 1512 1517 1506 1475 1474 1475 1480 1488 1501 1491 1520 1527 1532 1516 1494 1467 1453 1449 1444 1444 1449 1451 1456
1494 1494 1495 1497 1499 1501 1505 1516 1505 1494 1489 1488 1498 1494 1505 1501 1498 1495 1493 1497 1494 1487 1486 1496 1511 1472 1468 1470 1472 1476 1479 1505 1519 1526 1532 1518 1506 1497 1473 1463 1452 1450 1449 1449 1453
1495 1495 1497 1498 1501 1502 1514 1511 1498 1490 1488 1488 1492 1499 1502 1503 1500 1499 1498 1496 1492 1488 1485 1491 1500 1478 1475 1478 1480 1482 1487 1496 1505 1516 1527 1532 1513 1476 1471 1463 1458 1450 1447 1447 1446
1495 1498 1500 1501 1504 1507 1509 1502 1496 1492 1487 1488 1489 1494 1498 1501 1498 1499 1503 1501 1494 1492 1498 1492 1500 1503 1488 1469 1468 1470 1477 1488 1510 1509 1516 1516 1507 1459 1458 1457 1454 1452 1444 1441 1446
1496 1499 1502 1504 1512 1511 1502 1499 1498 1496 1495 1493 1499 1498 1498 1503 1505 1501 1503 1500 1497 1496 1500 1494 1504 1514 1496 1481 1474 1481 1475 1481 1492 1501 1509 1515 1500 1456 1456 1453 1451 1450 1447 1443 1442
1499 1503 1504 1505 1506 1507 1506 1506 1503 1499 1500 1500 1502 1500 1502 1506 1506 1507 1506 1500 1499 1497 1495 1493 1505 1509 1517 1501 1495 1491 1486 1480 1485 1504 1500 1499 1480 1464 1455 1453 1448 1449 1447 1446 1441
1501 1508 1510 1512 1507 1508 1506 1506 1507 1506 1502 1502 1505 1506 1507 1512 1511 1510 1504 1503 1498 1496 1495 1499 1509 1502 1499 1495 1491 1487 1485 1481 1482 1480 1488 1478 1480 1466 1457 1451 1447 1450 1449 1446 1443
1506 1510 1510 1509 1508 1508 1509 1514 1511 1508 1505 1508 1508 1506 1506 1508 1508 1510 1506 1505 1503 1496 1496 1499 1507 1498 1500 1488 1486 1487 1480 1475 1471 1471 1470 1471 1470 1456 1453 1453 1449 1444 1447 1445 1443
1511 1512 1512 1513 1511 1512 1516 1513 1512 1508 1508 1508 1506 1505 1506 1505 1504 1502 1500 1498 1496 1497 1500 1502 1506 1508 1508 1495 1492 1492 1474 1472 1472 1469 1471 1477 1464 1457 1453 1452 1450 1448 1446 1448 1447